When you browse on this site, cookies collect data to enhance your experience and personalize the content and advertising you see.
Visit our Privacy Policy to learn more. By continuing to use the site, you agree to this use of cookies and data.
  • In Netherlands
  • List of Countries
  • For 7 days
  • Water Temperature
  • Satellite Maps
  • Weather Map
  • Weather Widgets
  • user-avatar
    Login

    Hourly Weather Pazardzhik

    Today, 18 July, Thursday

    Time Temperature Precipitation Wind Pressure Humidity
    00:00 +18°C° 0 mm 2 mps 740 mmHg 71%
    01:00 +18°C° 0 mm 2 mps 740 mmHg 72%
    02:00 +18°C° 0 mm 2 mps 739 mmHg 74%
    03:00 +18°C° 0 mm 2 mps 740 mmHg 74%
    04:00 +17°C° 0 mm 2 mps 740 mmHg 75%
    05:00 +17°C° 0 mm 2 mps 740 mmHg 75%
    06:00 +19°C° 0 mm 2 mps 740 mmHg 70%
    07:00 +22°C° 0 mm 1 mps 740 mmHg 65%
    08:00 +24°C° 0 mm 1 mps 740 mmHg 60%
    09:00 +26°C° 0 mm 1 mps 741 mmHg 55%
    10:00 +27°C° 0 mm 1 mps 741 mmHg 50%
    11:00 +29°C° 0 mm 1 mps 741 mmHg 45%
    12:00 +30°C° 0 mm 1 mps 741 mmHg 42%
    13:00 +30°C° 0 mm 1 mps 741 mmHg 39%
    14:00 +31°C° 0 mm 1 mps 741 mmHg 36%
    15:00 +31°C° 0.1 mm 1 mps 741 mmHg 37%
    16:00 +30°C° 0.1 mm 2 mps 741 mmHg 38%
    17:00 +30°C° 0.1 mm 2 mps 741 mmHg 39%
    18:00 +28°C° 0 mm 2 mps 741 mmHg 47%
    19:00 +26°C° 0 mm 2 mps 741 mmHg 55%
    20:00 +24°C° 0 mm 2 mps 741 mmHg 63%
    21:00 +23°C° 0 mm 2 mps 741 mmHg 66%
    22:00 +22°C° 0 mm 1 mps 742 mmHg 68%
    23:00 +21°C° 0 mm 1 mps 742 mmHg 71%

    Tomorrow, 19 July, Friday

    Time Temperature Precipitation Wind Pressure Humidity
    00:00 +21°C° 0 mm 1 mps 742 mmHg 72%
    01:00 +20°C° 0 mm 1 mps 742 mmHg 72%
    02:00 +20°C° 0 mm 1 mps 742 mmHg 73%
    03:00 +20°C° 0 mm 1 mps 742 mmHg 73%
    04:00 +20°C° 0 mm 1 mps 743 mmHg 73%
    05:00 +19°C° 0 mm 1 mps 743 mmHg 74%
    06:00 +21°C° 0 mm 1 mps 743 mmHg 69%
    07:00 +23°C° 0 mm 1 mps 743 mmHg 65%
    08:00 +23°C° 0 mm 0 mps 744 mmHg 61%
    09:00 +26°C° 0 mm 1 mps 744 mmHg 57%
    10:00 +27°C° 0 mm 1 mps 744 mmHg 53%
    11:00 +29°C° 0 mm 2 mps 744 mmHg 49%
    12:00 +30°C° 0.1 mm 2 mps 744 mmHg 47%
    13:00 +30°C° 0.1 mm 2 mps 743 mmHg 44%
    14:00 +31°C° 0.1 mm 3 mps 743 mmHg 42%
    15:00 +31°C° 0.2 mm 2 mps 743 mmHg 42%
    16:00 +31°C° 0.2 mm 2 mps 743 mmHg 42%
    17:00 +31°C° 0.2 mm 2 mps 743 mmHg 43%
    18:00 +28°C° 0.1 mm 2 mps 743 mmHg 49%
    19:00 +26°C° 0.1 mm 1 mps 743 mmHg 55%
    20:00 +24°C° 0.1 mm 1 mps 743 mmHg 61%
    21:00 +23°C° 0 mm 1 mps 744 mmHg 64%
    22:00 +23°C° 0 mm 1 mps 744 mmHg 66%
    23:00 +22°C° 0 mm 1 mps 744 mmHg 69%

    Day after tomorrow, 20 July, Saturday

    Time Temperature Precipitation Wind Pressure Humidity
    00:00 +21°C° 0 mm 1 mps 744 mmHg 71%
    01:00 +20°C° 0 mm 1 mps 744 mmHg 74%
    02:00 +20°C° 0 mm 1 mps 744 mmHg 76%
    03:00 +20°C° 0 mm 1 mps 745 mmHg 77%
    04:00 +19°C° 0 mm 1 mps 745 mmHg 78%
    05:00 +19°C° 0 mm 1 mps 745 mmHg 79%
    06:00 +21°C° 0 mm 1 mps 745 mmHg 72%
    07:00 +23°C° 0 mm 1 mps 745 mmHg 66%
    08:00 +25°C° 0 mm 1 mps 745 mmHg 60%
    09:00 +27°C° 0 mm 1 mps 745 mmHg 54%
    10:00 +29°C° 0 mm 1 mps 746 mmHg 48%
    11:00 +30°C° 0 mm 1 mps 746 mmHg 43%
    12:00 +31°C° 0 mm 2 mps 746 mmHg 40%
    13:00 +32°C° 0 mm 2 mps 745 mmHg 37%
    14:00 +33°C° 0 mm 3 mps 745 mmHg 35%
    15:00 +33°C° 0 mm 3 mps 745 mmHg 35%
    16:00 +33°C° 0 mm 3 mps 745 mmHg 36%
    17:00 +31°C° 0 mm 3 mps 745 mmHg 37%
    18:00 +29°C° 0 mm 2 mps 745 mmHg 44%
    19:00 +27°C° 0 mm 1 mps 745 mmHg 51%
    20:00 +25°C° 0 mm 1 mps 745 mmHg 57%
    21:00 +24°C° 0 mm 1 mps 746 mmHg 58%
    22:00 +23°C° 0 mm 1 mps 746 mmHg 59%
    23:00 +23°C° 0 mm 1 mps 746 mmHg 60%

    21 July, Sunday

    Time Temperature Precipitation Wind Pressure Humidity
    00:00 +22°C° 0 mm 1 mps 746 mmHg 62%
    01:00 +22°C° 0 mm 1 mps 746 mmHg 64%
    02:00 +21°C° 0 mm 1 mps 746 mmHg 65%
    03:00 +21°C° 0 mm 1 mps 746 mmHg 66%
    04:00 +20°C° 0 mm 1 mps 746 mmHg 67%
    05:00 +20°C° 0 mm 1 mps 746 mmHg 68%
    06:00 +22°C° 0 mm 1 mps 746 mmHg 63%
    07:00 +25°C° 0 mm 1 mps 747 mmHg 58%
    08:00 +27°C° 0 mm 1 mps 747 mmHg 53%
    09:00 +28°C° 0 mm 1 mps 747 mmHg 48%
    10:00 +30°C° 0 mm 1 mps 747 mmHg 43%
    11:00 +32°C° 0 mm 1 mps 747 mmHg 38%
    12:00 +32°C° 0 mm 2 mps 747 mmHg 36%
    13:00 +34°C° 0 mm 2 mps 747 mmHg 35%
    14:00 +34°C° 0 mm 2 mps 746 mmHg 33%
    15:00 +34°C° 0 mm 2 mps 746 mmHg 34%
    16:00 +34°C° 0 mm 2 mps 746 mmHg 35%
    17:00 +34°C° 0 mm 2 mps 746 mmHg 36%
    18:00 +31°C° 0 mm 1 mps 746 mmHg 43%
    19:00 +29°C° 0 mm 1 mps 746 mmHg 49%
    20:00 +26°C° 0 mm 1 mps 746 mmHg 55%
    21:00 +26°C° 0 mm 1 mps 746 mmHg 57%
    22:00 +25°C° 0 mm 1 mps 746 mmHg 59%
    23:00 +24°C° 0 mm 1 mps 747 mmHg 61%

    22 July, Monday

    Time Temperature Precipitation Wind Pressure Humidity
    00:00 +24°C° 0 mm 1 mps 747 mmHg 63%
    01:00 +23°C° 0 mm 1 mps 746 mmHg 65%
    02:00 +23°C° 0 mm 1 mps 746 mmHg 68%
    03:00 +22°C° 0 mm 1 mps 746 mmHg 69%
    04:00 +22°C° 0 mm 1 mps 746 mmHg 70%
    05:00 +22°C° 0 mm 1 mps 746 mmHg 71%
    06:00 +24°C° 0 mm 1 mps 746 mmHg 65%
    07:00 +26°C° 0 mm 1 mps 746 mmHg 60%
    08:00 +28°C° 0 mm 1 mps 746 mmHg 54%
    09:00 +30°C° 0 mm 1 mps 746 mmHg 49%
    10:00 +32°C° 0 mm 1 mps 746 mmHg 43%
    11:00 +34°C° 0 mm 1 mps 746 mmHg 38%
    12:00 +34°C° 0 mm 1 mps 746 mmHg 37%
    13:00 +35°C° 0 mm 1 mps 746 mmHg 35%
    14:00 +35°C° 0 mm 1 mps 745 mmHg 33%
    15:00 +35°C° 0 mm 1 mps 745 mmHg 35%
    16:00 +34°C° 0 mm 1 mps 744 mmHg 36%
    17:00 +35°C° 0 mm 2 mps 744 mmHg 38%
    18:00 +32°C° 0 mm 1 mps 744 mmHg 44%
    19:00 +30°C° 0 mm 1 mps 744 mmHg 49%
    20:00 +28°C° 0 mm 1 mps 744 mmHg 55%
    21:00 +27°C° 0 mm 1 mps 744 mmHg 56%
    22:00 +26°C° 0 mm 1 mps 744 mmHg 58%
    23:00 +26°C° 0 mm 2 mps 744 mmHg 59%

    23 July, Tuesday

    Time Temperature Precipitation Wind Pressure Humidity
    00:00 +25°C° 0 mm 2 mps 744 mmHg 60%
    01:00 +25°C° 0 mm 2 mps 744 mmHg 60%
    02:00 +25°C° 0 mm 2 mps 744 mmHg 60%
    03:00 +24°C° 0 mm 2 mps 744 mmHg 62%
    04:00 +24°C° 0 mm 2 mps 743 mmHg 64%
    05:00 +24°C° 0 mm 2 mps 743 mmHg 65%
    06:00 +26°C° 0 mm 2 mps 743 mmHg 62%
    07:00 +27°C° 0 mm 3 mps 743 mmHg 58%
    08:00 +29°C° 0 mm 3 mps 744 mmHg 54%
    09:00 +31°C° 0 mm 3 mps 743 mmHg 49%
    10:00 +33°C° 0 mm 3 mps 743 mmHg 43%
    11:00 +34°C° 0 mm 3 mps 743 mmHg 38%
    12:00 +35°C° 0 mm 4 mps 743 mmHg 37%
    13:00 +35°C° 0 mm 4 mps 743 mmHg 36%
    14:00 +35°C° 0 mm 4 mps 742 mmHg 35%
    15:00 +34°C° 0 mm 4 mps 742 mmHg 38%
    16:00 +34°C° 0 mm 3 mps 742 mmHg 42%
    17:00 +33°C° 0 mm 3 mps 742 mmHg 46%
    18:00 +30°C° 0.2 mm 2 mps 742 mmHg 52%
    19:00 +28°C° 0.2 mm 2 mps 742 mmHg 59%
    20:00 +26°C° 0.2 mm 1 mps 742 mmHg 65%
    21:00 +25°C° 0.1 mm 1 mps 742 mmHg 68%
    22:00 +24°C° 0.1 mm 1 mps 742 mmHg 70%
    23:00 +23°C° 0.1 mm 1 mps 743 mmHg 72%
    Show more